マクノート彗星

C/2010 J2 ( McNaught )

English version
Home page
Updated on January 6, 2021

---------------------------------------------------------------------

・ プロフィール

発見日 2010年5月8日
発見光度 17.5等
発見者 R. H. McNaught (Siding Spring)

・ 写真集

・ 軌道要素

Epoch 2010 June 13.0 TT = JDT 2455360.5
T 2010 June 3.85007 TT                                  MPC
q   3.3869733            (2000.0)            P               Q
z  +0.0001043      Peri.    4.61321     +0.62919469     -0.48886093
 +/-0.0000015      Node   311.79557     -0.73652878     -0.62334099
e   0.9996468      Incl.  125.85401     -0.24827283     +0.61029583
From 481 observations 2010 May 8-2011 June 25, mean residual 0".5.

・ 星図

・ 光度変化

        m1 = 9.5 + 5 logΔ + 10.0 log r

---------------------------------------------------------------------

軌道要素はM.P.E.C. 2011-O57に掲載されたものです。
星図はステラナビゲータ Ver.8 (アストロアーツ) で作成したものです。
光度グラフはComet for Windowsで作成したものです。

---------------------------------------------------------------------

Copyright(C) Seiichi Yoshida (comet@aerith.net). All rights reserved.